User: anonymous   Login
Location: Caltech
(34.1382°N, 118.1253°W)
Time: 04:46:58
(UTC-07:00)
Language:

Cosmos 1937 Rocket - Orbit

View from above orbital plane
View from above orbital plane
View from above satellite
View from above satellite

Ground track
Ground track

The orbit data is extracted from the following two-line orbital elements,

1 19039U 88029B   15185.12585277  .00000151  00000-0  58144-4 0  9999
2 19039 074.0465 174.2458 0023449 167.5953 261.7999 14.38228082428194
Epoch (UTC): 04 July 2015 03:01:13
Eccentricity: 0.0023449
inclination: 74.0465°
perigee height: 747 km
apogee height: 781 km
right ascension of ascending node: 174.2458°
argument of perigee: 167.5953°
revolutions per day: 14.38228082
mean anomaly at epoch: 261.7999°
orbit number at epoch: 42819

The dashed part of the orbit path shows where the satellite is in the earth's shadow,  

DLR